Minneapolis, MN

7:38 AM CST on January 24, 2017 (GMT -0600)
Crystal

Weather History for KMIC - May, 2013

Change the Weather History Date:

Monday, May 6, 2013

  Actual Average Record
Temperature  
Mean Temperature 58 °F -  
Max Temperature 75 °F 63 °F 93 °F (2016)
Min Temperature 43 °F 42 °F 35 °F (2006)
Degree Days  
Heating Degree Days 7    
Growing Degree Days 8 (Base 50)    
Moisture  
Dew Point 43 °F    
Average Humidity 60    
Maximum Humidity 90    
Minimum Humidity 34    
Precipitation  
Precipitation 0.00 in - - ()
Sea Level Pressure  
Sea Level Pressure 30.06 in    
Wind  
Wind Speed 2 mph (NW)    
Max Wind Speed 7 mph    
Max Gust Speed -    
Visibility 10 miles    
Events      
Averages and records for this station are not official NWS values.
T = Trace of Precipitation, MM = Missing Value Source: NWS Daily Summary

Daily Weather History Graph

Daily Weather History Graph

Search for Another Location

Airport or City:

Trip Planner

Search our weather history database for the weather conditions in past years. The results will help you decide how hot, cold, wet, or windy it might be!

Date:

Astronomy

May. 06, 2013 Rise Set
Actual Time 5:55 AM CDT 8:25 PM CDT
Civil Twilight 5:22 AM CDT 8:58 PM CDT
Nautical Twilight 4:40 AM CDT 9:40 PM CDT
Astronomical Twilight 3:53 AM CDT 10:27 PM CDT
Moon 4:06 AM CDT (5/6) 5:19 PM CDT (5/6)
Length of Visible Light 15h 36m
Length of Day
14h 30m
Waning Crescent, 11% of the Moon is Illuminated
May 6
Waning Crescent
May 9
New
May 17
First Quarter
May 24
Full
May 31
Last Quarter

Hourly Weather History & Observations

Time (CDT) Temp. Windchill Dew Point Humidity Pressure Visibility Wind Dir Wind Speed Gust Speed Precip Events Conditions
12:53 AM 46.0 °F 44.8 °F 43.0 °F 89% 30.09 in 8.0 mi NW 3.5 mph - N/A   Clear
1:53 AM 45.0 °F - 42.1 °F 90% 30.09 in 10.0 mi Calm Calm - N/A   Clear
2:53 AM 45.0 °F - 41.0 °F 86% 30.08 in 8.0 mi Calm Calm - N/A   Clear
3:53 AM 44.1 °F - 39.9 °F 85% 30.08 in 10.0 mi Calm Calm - N/A   Clear
4:53 AM 43.0 °F 41.3 °F 39.9 °F 89% 30.09 in 10.0 mi NNW 3.5 mph - N/A   Clear
5:53 AM 43.0 °F - 39.9 °F 89% 30.10 in 10.0 mi Calm Calm - N/A   Clear
6:53 AM 44.1 °F - 41.0 °F 89% 30.11 in 10.0 mi Calm Calm - N/A   Clear
7:53 AM 48.0 °F - 41.0 °F 77% 30.12 in 10.0 mi Calm Calm - N/A   Clear
8:53 AM 52.0 °F - 42.1 °F 69% 30.12 in 10.0 mi North 4.6 mph - N/A   Clear
9:53 AM 59.0 °F - 43.0 °F 55% 30.12 in 10.0 mi North 4.6 mph - N/A   Clear
10:53 AM 63.0 °F - 44.1 °F 50% 30.10 in 10.0 mi Variable 3.5 mph - N/A   Clear
12:53 PM 68.0 °F - 45.0 °F 43% 30.08 in 10.0 mi Calm Calm - N/A   Clear
1:53 PM 70.0 °F - 45.0 °F 41% 30.06 in 10.0 mi Calm Calm - N/A   Clear
2:53 PM 73.0 °F - 44.1 °F 35% 30.04 in 10.0 mi Variable 3.5 mph - N/A   Partly Cloudy
3:53 PM 71.1 °F - 43.0 °F 36% 30.03 in 10.0 mi Calm Calm - N/A   Scattered Clouds
4:53 PM 73.0 °F - 43.0 °F 34% 30.02 in 10.0 mi NW 5.8 mph - N/A   Mostly Cloudy
5:53 PM 72.0 °F - 42.1 °F 34% 30.02 in 10.0 mi West 6.9 mph - N/A   Clear
6:53 PM 71.1 °F - 42.1 °F 35% 30.01 in 10.0 mi Calm Calm - N/A   Clear
7:53 PM 70.0 °F - 42.1 °F 36% 30.01 in 10.0 mi Calm Calm - N/A   Clear
8:53 PM 64.0 °F - 44.1 °F 48% 30.01 in 10.0 mi Calm Calm - N/A   Clear
9:53 PM 62.1 °F - 44.1 °F 52% 30.02 in 10.0 mi Calm Calm - N/A   Clear
10:53 PM 60.1 °F - 45.0 °F 57% 30.02 in 10.0 mi Calm Calm - N/A   Clear
11:53 PM 57.0 °F - 46.0 °F 67% 30.03 in 10.0 mi SSE 3.5 mph - N/A   Clear